DELTA 1 DEB, 7040

Orbit data source: Space-Track

DELTA 1 DEB, 7040 is space debris in SSO originally from a launch on Tue, 06 Nov 1973 UTC launched from the Air Force Western Test Range (AFWTR). Debris objects in space refer to the collection of defunct objects orbiting the Earth. Examples of debris include non-operational satellites, rocket bodies, and fragments generated from explosions, collisions, or faulty payload assembly.

Loading next visibility...
Identifier
7040, 1973-086AG
Orbit
SSO
Last TLE update
1 day ago
Origin
Manufacturer
Unknown
Mission
Spacecraft
Bus & Motor
Unknown
Mass
Unknown
Launch date (UTC)
1973-11-06 (52 years ago)
Launch vehicle
Unknown
Launch site
Air Force Western Test Range (AFWTR)
Object type
Payload
Rocket body
Debris
Shape & HBR
Unknown
Radar Cross Section
Small (<0.1 m²)

Expand to show TLE details & history

TLE from 1 day ago
0 DELTA 1 DEB
1 07040U 73086AG  25125.90522266  .00000224  00000-0  10926-2 0  9990
2 07040 102.5435 285.3700 0194167 206.4319 313.6009 12.82333557405023
Epoch: 2025-05-05T21:43Z
Definitive object data (Epoch: 2025-05-05T21:43:31.237Z)
Latitude
21.07667°
Longitude
-79.62812°
Altitude
1,232.69 km
Speed
7.288 km/s
True Right ascension
07h 21m 03s
True Declination
20° 58' 07"
Sunlit
Object was in daylight at TLE epoch
Visualization TLE readout
Latitude
62.2473°
Longitude
-58.26171°
Altitude
1,336.889 km
Speed
7.198 km/s
Apparent Right ascension
02h 37m 08s
Apparent Declination
40° 42' 14"
Sunlit
Object is in daylight
Visualization observer readout
Local Sidereal Time
11:28:07
Azimuth
326.161° NNW
Elevation
1.364°
Doppler factor
1
Orbital elements
Apogee altitude
1,479.314 km
Perigee altitude
1,179.994 km
Semi-major axis
7,707.791 km
Eccentricity
0.0194167
Inclination
102.5435°
RAAN
285.37°
Arg. of periapsis
206.4319°
True anomaly
311.96246°
Mean anomaly
313.6009°
Eccentric anomaly
312.78442°
Mean motion
3.20736 °/min
BSTAR
0.0010926
Orbital period
112.24 mins
Loading maneuver chart data...
Loading SW <> Apogee altitude chart data...
Loading historical data...
Loading historical data...
Loading historical data...
Loading historical data...
Loading historical data...
Loading historical data...
Loading historical data...

DELTA 1 DEB Visibility forecast

Observer location: undefined°, undefined°

Span
Click to sort rows by Start time (UTC) header in descending order
Start Az.
Max El. time (UTC)
Max El. Az.
Max El.
End time (UTC)
End Az.
12 mins2025-05-07 08:37:40.131Z103.479° ESE2025-05-07 08:43:40.131Z57.317° ENE23.191°2025-05-07 08:49:40.131Z6.704° NNE
14 mins2025-05-07 10:26:40.131Z165.356° S2025-05-07 10:33:40.131Z286.358° WNW44.453°2025-05-07 10:40:40.131Z339° N
7 mins2025-05-07 12:21:40.131Z247.251° WSW2025-05-07 12:24:40.131Z270.686° WNW15.132°2025-05-07 12:28:40.131Z300.322° NW
9 mins2025-05-07 22:15:40.131Z56.943° ENE2025-05-07 22:19:40.131Z96.109° ESE20.819°2025-05-07 22:24:40.131Z142.003° SSE
12 mins2025-05-08 00:04:40.131Z11.012° NNE2025-05-08 00:10:40.131Z277.89° WNW42.719°2025-05-08 00:16:40.131Z213.4° SW
5 mins2025-05-08 01:56:40.131Z333.982° NNW2025-05-08 01:58:40.131Z317.321° NNW14.073°2025-05-08 02:01:40.131Z291.626° WNW
|